EN

Hourly Weather Ladino

Today, 25 July, Sunday

Time Temperature Precipitation Wind Pressure Humidity
00:00 +13°C° 0 mm 1 mps 748 mmHg 67%
01:00 +13°C° 0 mm 1 mps 748 mmHg 69%
02:00 +12°C° 0 mm 1 mps 749 mmHg 71%
03:00 +13°C° 0 mm 1 mps 749 mmHg 70%
04:00 +13°C° 0 mm 1 mps 749 mmHg 68%
05:00 +14°C° 0 mm 1 mps 749 mmHg 67%
06:00 +15°C° 0 mm 1 mps 749 mmHg 62%
07:00 +18°C° 0 mm 1 mps 750 mmHg 56%
08:00 +20°C° 0 mm 1 mps 750 mmHg 51%
09:00 +21°C° 0 mm 1 mps 750 mmHg 46%
10:00 +23°C° 0 mm 1 mps 750 mmHg 41%
11:00 +24°C° 0 mm 1 mps 750 mmHg 36%
12:00 +24°C° 0 mm 1 mps 750 mmHg 36%
13:00 +24°C° 0 mm 1 mps 750 mmHg 36%
14:00 +24°C° 0 mm 1 mps 750 mmHg 36%
15:00 +24°C° 0 mm 1 mps 750 mmHg 42%
16:00 +23°C° 0 mm 1 mps 750 mmHg 47%
17:00 +23°C° 0 mm 1 mps 750 mmHg 52%
18:00 +22°C° 0 mm 1 mps 750 mmHg 56%
19:00 +21°C° 0 mm 1 mps 750 mmHg 59%
20:00 +20°C° 0 mm 1 mps 750 mmHg 62%
21:00 +20°C° 0 mm 1 mps 750 mmHg 62%
22:00 +19°C° 0 mm 1 mps 751 mmHg 63%
23:00 +19°C° 0 mm 1 mps 751 mmHg 63%

Tomorrow, 26 July, Monday

Time Temperature Precipitation Wind Pressure Humidity
00:00 +19°C° 0 mm 1 mps 751 mmHg 63%
01:00 +19°C° 0 mm 1 mps 751 mmHg 63%
02:00 +19°C° 0 mm 1 mps 751 mmHg 62%
03:00 +19°C° 0 mm 1 mps 751 mmHg 63%
04:00 +19°C° 0 mm 1 mps 751 mmHg 64%
05:00 +18°C° 0 mm 1 mps 751 mmHg 65%
06:00 +18°C° 0 mm 0 mps 751 mmHg 62%
07:00 +19°C° 0 mm 0 mps 751 mmHg 59%
08:00 +20°C° 0 mm 0 mps 752 mmHg 55%
09:00 +22°C° 0 mm 0 mps 752 mmHg 50%
10:00 +23°C° 0 mm 0 mps 752 mmHg 45%
11:00 +25°C° 0 mm 0 mps 752 mmHg 40%
12:00 +27°C° 0 mm 1 mps 752 mmHg 40%
13:00 +27°C° 0 mm 1 mps 751 mmHg 40%
14:00 +27°C° 0 mm 1 mps 751 mmHg 40%
15:00 +27°C° 0 mm 1 mps 751 mmHg 44%
16:00 +26°C° 0 mm 1 mps 751 mmHg 48%
17:00 +25°C° 0 mm 1 mps 751 mmHg 52%
18:00 +24°C° 0 mm 1 mps 751 mmHg 57%
19:00 +22°C° 0 mm 1 mps 751 mmHg 61%
20:00 +18°C° 0 mm 0 mps 751 mmHg 65%
21:00 +20°C° 0 mm 1 mps 751 mmHg 66%
22:00 +20°C° 0 mm 1 mps 751 mmHg 68%
23:00 +19°C° 0 mm 1 mps 752 mmHg 69%

Day after tomorrow, 27 July, Tuesday

Time Temperature Precipitation Wind Pressure Humidity
00:00 +19°C° 0 mm 1 mps 752 mmHg 71%
01:00 +18°C° 0 mm 1 mps 752 mmHg 73%
02:00 +18°C° 0 mm 1 mps 752 mmHg 75%
03:00 +18°C° 0 mm 1 mps 752 mmHg 75%
04:00 +18°C° 0 mm 1 mps 752 mmHg 76%
05:00 +18°C° 0 mm 1 mps 752 mmHg 76%
06:00 +21°C° 0 mm 1 mps 752 mmHg 68%
07:00 +23°C° 0 mm 1 mps 752 mmHg 60%
08:00 +25°C° 0 mm 1 mps 752 mmHg 52%
09:00 +27°C° 0 mm 1 mps 751 mmHg 47%
10:00 +28°C° 0 mm 1 mps 751 mmHg 41%
11:00 +30°C° 0 mm 1 mps 751 mmHg 36%
12:00 +29°C° 0 mm 1 mps 751 mmHg 37%
13:00 +29°C° 0 mm 1 mps 750 mmHg 39%
14:00 +29°C° 0 mm 1 mps 750 mmHg 40%
15:00 +28°C° 0 mm 2 mps 750 mmHg 42%
16:00 +28°C° 0 mm 2 mps 750 mmHg 45%
17:00 +28°C° 0 mm 2 mps 749 mmHg 47%
18:00 +26°C° 0 mm 2 mps 749 mmHg 53%
19:00 +24°C° 0 mm 1 mps 749 mmHg 60%
20:00 +21°C° 0 mm 1 mps 749 mmHg 66%
21:00 +21°C° 0 mm 1 mps 749 mmHg 69%
22:00 +20°C° 0 mm 1 mps 749 mmHg 72%
23:00 +19°C° 0 mm 1 mps 749 mmHg 74%

28 July, Wednesday

Time Temperature Precipitation Wind Pressure Humidity
00:00 +19°C° 0 mm 1 mps 748 mmHg 77%
01:00 +19°C° 0 mm 1 mps 748 mmHg 79%
02:00 +18°C° 0 mm 1 mps 748 mmHg 81%
03:00 +18°C° 0 mm 1 mps 747 mmHg 82%
04:00 +19°C° 0 mm 1 mps 747 mmHg 82%
05:00 +19°C° 0 mm 1 mps 747 mmHg 82%
06:00 +19°C° 0 mm 2 mps 747 mmHg 76%
07:00 +21°C° 0 mm 2 mps 746 mmHg 69%
08:00 +24°C° 0 mm 3 mps 746 mmHg 63%
09:00 +24°C° 0 mm 3 mps 746 mmHg 63%
10:00 +25°C° 0 mm 4 mps 745 mmHg 62%
11:00 +25°C° 0 mm 4 mps 745 mmHg 62%
12:00 +23°C° 0.5 mm 4 mps 745 mmHg 67%
13:00 +22°C° 0.5 mm 5 mps 744 mmHg 73%
14:00 +21°C° 0.5 mm 5 mps 744 mmHg 79%
15:00 +20°C° 0.5 mm 4 mps 744 mmHg 83%
16:00 +19°C° 0.5 mm 4 mps 743 mmHg 88%
17:00 +18°C° 0.5 mm 4 mps 742 mmHg 92%
18:00 +18°C° 0.1 mm 3 mps 742 mmHg 94%
19:00 +17°C° 0.1 mm 2 mps 741 mmHg 95%
20:00 +17°C° 0.1 mm 2 mps 741 mmHg 96%
21:00 +18°C° 0.1 mm 1 mps 741 mmHg 97%
22:00 +18°C° 0.1 mm 1 mps 740 mmHg 97%
23:00 +18°C° 0.1 mm 1 mps 740 mmHg 97%

29 July, Thursday

Time Temperature Precipitation Wind Pressure Humidity
00:00 +18°C° 0 mm 1 mps 740 mmHg 97%
01:00 +18°C° 0 mm 1 mps 740 mmHg 98%
02:00 +18°C° 0 mm 1 mps 740 mmHg 98%
03:00 +18°C° 0 mm 1 mps 740 mmHg 97%
04:00 +18°C° 0 mm 1 mps 739 mmHg 97%
05:00 +18°C° 0 mm 1 mps 739 mmHg 96%
06:00 +19°C° 0 mm 1 mps 739 mmHg 91%
07:00 +19°C° 0 mm 2 mps 739 mmHg 86%
08:00 +20°C° 0 mm 2 mps 739 mmHg 80%
09:00 +23°C° 0 mm 2 mps 739 mmHg 70%
10:00 +25°C° 0 mm 2 mps 739 mmHg 61%
11:00 +27°C° 0 mm 2 mps 739 mmHg 51%
12:00 +27°C° 0.3 mm 3 mps 739 mmHg 54%
13:00 +27°C° 0.3 mm 3 mps 739 mmHg 56%
14:00 +27°C° 0.3 mm 3 mps 739 mmHg 59%
15:00 +26°C° 0.2 mm 3 mps 739 mmHg 62%
16:00 +25°C° 0.2 mm 4 mps 738 mmHg 66%
17:00 +23°C° 0.2 mm 4 mps 738 mmHg 69%
18:00 +21°C° 0.2 mm 4 mps 739 mmHg 77%
19:00 +20°C° 0.2 mm 3 mps 739 mmHg 85%
20:00 +18°C° 0.2 mm 2 mps 739 mmHg 93%
21:00 +18°C° 0 mm 2 mps 739 mmHg 94%
22:00 +17°C° 0 mm 3 mps 739 mmHg 95%
23:00 +17°C° 0 mm 3 mps 739 mmHg 96%

30 July, Friday

Time Temperature Precipitation Wind Pressure Humidity
00:00 +16°C° 0 mm 3 mps 739 mmHg 97%
01:00 +16°C° 0 mm 3 mps 739 mmHg 97%
02:00 +16°C° 0 mm 3 mps 739 mmHg 97%
03:00 +16°C° 0 mm 2 mps 739 mmHg 97%
04:00 +16°C° 0 mm 2 mps 739 mmHg 96%
05:00 +16°C° 0 mm 2 mps 739 mmHg 95%
06:00 +18°C° 0 mm 3 mps 740 mmHg 85%
07:00 +20°C° 0 mm 3 mps 740 mmHg 75%
08:00 +21°C° 0 mm 3 mps 740 mmHg 65%
09:00 +23°C° 0.1 mm 4 mps 740 mmHg 58%
10:00 +25°C° 0.1 mm 4 mps 740 mmHg 51%
11:00 +26°C° 0.1 mm 5 mps 740 mmHg 44%
12:00 +27°C° 0 mm 5 mps 740 mmHg 40%
13:00 +27°C° 0 mm 5 mps 740 mmHg 36%
14:00 +28°C° 0 mm 5 mps 740 mmHg 32%
15:00 +27°C° 0 mm 5 mps 740 mmHg 35%
16:00 +27°C° 0 mm 4 mps 740 mmHg 38%
17:00 +26°C° 0 mm 4 mps 740 mmHg 40%
18:00 +24°C° 0 mm 3 mps 741 mmHg 48%
19:00 +21°C° 0 mm 3 mps 741 mmHg 55%
20:00 +19°C° 0 mm 2 mps 741 mmHg 63%
21:00 +19°C° 0 mm 2 mps 741 mmHg 66%
22:00 +18°C° 0 mm 2 mps 741 mmHg 68%
23:00 +18°C° 0 mm 2 mps 741 mmHg 71%
Show more